User: anonymous   Login
Location: Caltech
(34.1382°N, 118.1253°W)
Time: 02:38:39
(UTC-08:00)
Language:

RS-15 - Orbit

View from above orbital plane
View from above orbital plane
View from above satellite
View from above satellite

Ground track
Ground track

The orbit data is extracted from the following two-line orbital elements,

1 23439U 94085A   18052.50827274 -.00000048  00000-0 -16063-3 0  9991
2 23439  64.8157 175.9200 0161131 202.6707 259.3465 11.27566558953686
Epoch (UTC): 21 February 2018 12:11:54
Eccentricity: 0.0161131
inclination: 64.8157°
perigee height: 1887 km
apogee height: 2158 km
right ascension of ascending node: 175.9200°
argument of perigee: 202.6707°
revolutions per day: 11.27566558
mean anomaly at epoch: 259.3465°
orbit number at epoch: 95368

The dashed part of the orbit path shows where the satellite is in the earth's shadow,  

DLR